Theta_e
315 311 313 317 310 308 312 312 314 317 318 319 319 319 320 326 328 330 332 332 331 325 322 323 324 325 329 326 327 330 332 334 335 335 334 333 332 329 329 329 330 332 333 333 334 334 335 334 332
311 311 314 316 307 308 306 311 315 316 318 317 319 322 324 327 330 332 333 333 326 321 322 322 321 321 322 321 321 324 328 332 334 335 334 333 333 329 329 329 330 332 333 333 334 334 334 332 329
310 314 318 306 306 308 308 312 313 314 316 317 319 321 326 329 332 332 332 327 322 322 321 319 317 317 318 318 318 319 323 329 332 333 334 333 333 330 329 330 331 332 333 333 333 333 332 329 327
314 320 316 313 311 309 310 313 313 313 318 318 319 317 321 328 331 332 330 324 322 321 318 317 317 317 317 317 318 318 321 325 329 331 332 332 334 330 329 331 332 332 333 333 332 331 329 327 326
315 319 313 314 312 310 310 313 315 314 315 318 319 318 320 326 332 332 330 322 321 319 317 317 317 317 317 317 317 318 320 323 325 328 329 331 334 331 330 327 326 326 331 332 330 330 329 326 326
314 314 313 314 313 311 311 315 316 317 317 318 319 318 322 326 331 332 329 322 320 318 317 317 317 317 317 317 318 318 319 322 324 326 327 331 335 332 330 325 324 326 328 330 330 330 329 327 325
310 310 313 312 312 313 315 317 317 316 316 318 319 316 320 321 332 333 328 322 319 318 317 317 317 317 317 318 318 319 320 322 324 325 327 331 335 334 330 326 325 325 325 325 328 330 330 326 323
317 310 315 311 313 314 316 317 318 318 317 319 319 316 317 322 324 332 326 321 319 318 318 317 317 318 318 318 318 319 321 323 324 325 328 331 335 334 331 328 327 327 324 324 326 329 330 325 323
318 314 314 314 315 315 317 316 317 318 318 318 318 318 318 319 324 329 325 320 318 318 318 318 318 318 318 319 319 319 321 324 325 326 328 330 333 335 333 330 329 329 327 324 324 328 329 326 324
312 310 313 312 315 315 316 315 315 315 316 316 317 318 317 319 324 332 325 321 319 318 319 319 318 318 319 320 320 320 321 323 325 326 327 329 331 333 334 333 331 330 329 324 324 329 326 326 325
310 311 311 314 315 315 313 313 313 314 312 315 315 316 317 317 322 333 325 322 321 321 321 320 319 319 319 319 320 320 322 323 324 326 327 327 329 332 333 333 332 330 331 325 325 328 324 324 325
308 308 310 310 312 311 309 312 312 312 313 315 316 316 317 317 318 322 331 327 324 321 321 321 321 321 320 320 320 320 321 322 323 324 325 327 329 331 332 333 333 332 332 327 326 327 324 325 325
308 309 308 308 308 310 311 310 311 312 314 315 316 316 317 318 318 319 321 331 331 324 322 322 321 321 321 321 321 321 321 321 321 323 324 325 327 329 331 332 332 332 332 330 325 325 324 324 323
307 306 306 307 308 309 309 309 310 313 315 315 315 316 317 317 318 318 319 320 324 329 330 329 326 324 322 322 321 321 321 321 321 322 323 324 326 328 329 331 332 332 332 332 328 325 323 323 323
308 305 304 306 308 307 310 309 309 314 314 314 314 314 315 316 317 317 318 318 318 319 320 321 330 331 331 329 329 326 323 321 321 321 322 323 324 325 328 330 331 332 332 333 331 328 324 324 324
306 304 305 306 306 308 309 308 310 311 310 310 311 312 312 314 315 316 317 316 317 317 317 318 320 328 331 332 332 332 331 325 322 321 322 322 323 324 325 327 329 331 333 332 332 331 327 326 326
302 304 304 305 306 306 308 307 308 309 308 307 309 310 311 312 312 314 315 315 315 314 314 314 315 318 324 332 333 334 335 333 327 323 322 323 325 325 325 326 327 330 332 332 332 332 330 328 327
305 304 304 304 305 305 303 305 305 307 307 307 308 310 311 311 312 312 313 313 313 314 314 315 315 317 318 330 334 336 337 337 333 327 326 326 326 326 327 327 328 329 331 332 332 333 332 330 328
304 303 303 303 303 303 302 303 304 304 305 305 308 309 310 311 311 311 312 313 312 312 313 315 315 317 318 327 335 337 337 338 337 333 334 333 333 333 332 330 328 330 330 331 332 332 333 331 329
300 303 301 302 303 303 301 304 305 303 304 307 308 309 310 311 312 312 312 312 312 312 313 314 316 318 318 321 333 337 337 336 335 336 334 330 327 325 327 330 331 333 332 332 332 332 333 332 331
299 301 301 303 302 301 301 303 303 305 306 306 308 309 308 309 309 310 310 310 311 312 313 315 317 318 317 325 335 331 338 333 333 330 331 330 330 328 329 329 331 330 333 335 334 333 330 330 329
301 300 302 304 303 303 303 304 304 303 303 305 307 311 312 312 311 311 311 311 310 312 315 316 319 319 318 329 334 326 328 331 328 330 327 330 329 329 331 332 330 330 332 333 333 331 331 330 330
301 300 300 302 303 303 301 301 303 302 309 310 309 311 311 311 312 312 312 311 311 319 321 323 322 325 326 327 329 328 327 322 328 332 330 328 329 329 330 329 331 328 328 331 332 332 333 331 330
300 299 300 303 302 304 303 303 303 308 309 309 309 311 308 309 311 312 312 312 313 327 329 331 332 332 332 332 330 328 330 329 328 324 324 327 327 328 328 328 328 329 328 330 330 330 331 332 331
299 299 299 300 305 302 301 301 304 307 307 308 309 309 308 308 309 314 314 312 319 325 326 327 327 328 325 322 321 327 324 325 328 328 329 330 330 329 328 328 329 328 328 329 328 329 329 331 332
298 300 299 300 301 300 299 300 300 306 306 308 308 307 307 309 310 312 318 312 323 324 325 324 324 325 326 323 321 323 323 321 318 316 315 321 325 328 329 330 330 328 328 328 328 328 330 331 332
299 299 300 301 300 301 300 300 301 304 304 307 308 308 306 308 309 312 318 320 321 321 319 319 320 319 319 317 315 314 314 313 315 316 316 321 324 326 329 330 329 329 329 329 328 330 329 330 331
301 300 301 300 294 299 297 300 305 305 306 307 308 307 308 308 307 311 314 316 315 314 313 312 312 312 312 312 312 312 312 312 312 313 316 319 322 323 325 327 329 328 328 328 328 329 330 330 331
301 302 302 301 301 304 304 302 306 307 307 307 307 308 309 306 305 302 303 303 305 310 311 308 309 311 312 312 311 311 310 310 311 312 313 316 318 321 322 323 326 328 329 329 328 328 328 328 329
301 301 300 299 302 303 305 303 306 306 306 306 307 306 305 302 301 301 300 302 299 300 305 306 305 306 308 308 307 307 307 307 308 309 310 312 313 317 320 322 324 326 327 328 328 329 328 328 329
Wind_Speed
4 2 2 0 4 5 3 6 2 4 2 6 16 6 8 5 7 5 7 31 25 25 26 25 24 22 21 19 17 16 15 14 14 14 14 12 12 11 11 11 11 11 12 11 11 10 11 10 10
3 5 2 3 4 2 5 4 7 3 11 22 10 4 6 7 9 4 25 26 24 23 24 23 22 20 20 18 17 16 16 15 15 14 14 13 12 11 11 11 10 10 10 10 10 10 11 12 12
5 5 2 4 3 5 5 3 5 11 17 4 9 9 3 4 11 22 30 29 27 25 22 21 21 20 20 18 16 15 16 17 16 16 15 14 13 12 12 12 10 9 8 9 10 11 11 11 10
5 3 5 4 6 6 5 2 6 13 9 9 21 6 7 7 6 31 30 28 28 24 22 22 21 20 19 18 16 15 17 18 17 17 16 15 14 14 13 12 11 9 8 9 10 11 13 13 12
6 4 4 1 6 6 4 7 13 6 10 15 17 11 9 6 18 24 30 29 28 25 24 23 22 20 19 18 17 17 17 18 18 17 16 16 16 15 15 13 11 9 10 10 9 11 13 13 13
3 3 3 3 7 6 3 10 6 4 10 18 14 22 7 11 22 23 31 31 27 26 26 26 24 22 20 19 18 17 17 18 18 17 17 17 18 17 17 14 12 12 11 9 9 12 13 13 12
6 4 5 4 6 7 2 1 1 5 8 6 17 8 15 34 13 22 33 31 28 27 27 28 27 25 21 19 18 18 17 17 17 17 17 18 19 18 19 15 14 12 9 8 9 12 13 12 12
4 4 4 6 4 9 2 5 8 6 7 15 15 6 17 32 20 21 34 32 30 29 28 28 28 27 25 22 20 18 18 18 17 17 17 18 19 19 20 16 15 11 9 7 10 14 14 13 10
4 2 4 5 6 7 6 4 7 9 17 14 10 24 20 30 26 21 34 34 33 31 30 30 29 28 26 24 22 21 20 19 19 19 19 19 20 21 21 19 16 12 9 8 11 15 16 13 11
5 4 9 6 4 5 12 5 20 6 15 24 32 20 24 24 21 23 36 34 35 34 34 32 30 28 27 26 25 24 23 23 22 22 22 22 21 22 21 21 18 15 11 11 13 17 18 16 15
4 5 5 5 11 12 7 21 14 7 4 14 25 33 27 21 17 19 34 34 34 34 33 32 31 29 28 28 28 27 27 26 26 25 25 24 23 23 23 23 23 20 16 14 17 21 21 17 15
3 7 6 5 15 14 6 20 19 19 18 26 27 26 24 24 18 12 31 31 30 33 35 34 32 31 30 30 30 29 28 27 28 27 26 26 26 26 25 25 25 23 19 18 20 23 23 19 17
5 4 6 10 18 16 17 12 14 23 29 23 20 19 24 21 17 14 11 28 32 31 34 36 35 35 34 33 32 30 29 28 28 29 28 28 28 28 27 27 26 25 23 21 21 24 24 23 20
3 8 13 10 17 19 13 16 11 12 30 27 27 28 23 22 21 21 18 17 21 27 32 37 39 39 38 37 35 34 33 32 31 31 31 30 29 30 30 29 28 27 25 23 22 23 23 22 21
7 7 7 7 8 5 10 4 9 26 23 18 16 18 20 23 23 21 18 20 21 25 29 32 40 43 42 41 38 37 36 35 35 33 33 33 32 32 32 31 30 29 26 25 25 24 23 22 21
5 3 4 6 6 10 1 9 5 14 14 25 30 27 24 23 22 21 20 18 19 22 25 29 35 44 48 45 42 38 37 37 37 36 36 35 34 32 32 32 32 30 29 27 27 26 26 24 23
5 3 3 7 10 4 2 5 6 31 28 22 29 28 24 24 23 18 17 18 18 17 19 20 27 39 46 53 48 44 40 39 37 37 36 34 34 33 31 31 30 31 31 30 29 27 28 27 26
6 5 4 5 7 14 13 23 5 9 19 26 29 29 30 30 25 22 22 23 23 25 27 27 28 35 38 51 52 47 43 40 37 34 31 28 29 31 31 30 30 28 31 32 31 30 29 29 25
6 4 5 6 9 4 9 21 14 12 15 16 27 29 28 26 24 22 23 22 24 26 26 30 32 34 42 49 56 51 48 42 37 34 29 23 23 23 25 29 30 30 30 33 31 30 32 30 25
3 4 6 5 7 3 10 27 21 5 8 13 17 25 26 26 25 24 21 23 26 29 30 31 35 35 42 46 52 50 48 44 36 31 26 25 26 21 22 24 27 29 30 32 33 35 34 30 29
4 3 5 7 5 5 8 17 7 1 4 17 21 26 25 25 28 32 34 36 38 32 28 31 32 35 43 48 50 43 39 33 31 32 30 34 30 29 24 25 27 27 29 34 37 37 32 31 32
3 8 6 7 7 3 5 11 25 6 6 12 22 31 33 36 34 36 35 35 33 32 29 30 25 28 36 42 43 40 37 31 26 32 26 36 29 30 27 27 28 29 30 35 37 36 36 35 32
2 6 6 6 6 6 3 3 13 11 9 14 17 26 31 35 35 36 35 30 26 26 25 24 19 20 26 26 27 19 22 28 33 31 29 32 30 28 28 30 33 33 34 35 36 34 37 38 35
6 7 4 1 2 3 5 0 6 4 5 8 15 20 27 33 35 36 33 31 28 23 19 18 22 21 19 20 20 27 24 29 25 27 29 29 26 25 26 28 32 35 37 37 37 34 33 35 37
9 6 5 5 1 5 11 6 6 4 4 6 11 15 23 32 34 33 32 25 16 20 22 21 20 25 25 19 13 9 11 13 16 16 20 21 24 28 31 31 30 33 34 35 36 37 35 34 41
3 3 2 4 3 8 7 6 6 4 10 11 18 22 28 31 37 38 28 15 23 21 20 25 24 23 20 19 15 4 6 8 12 12 14 17 23 29 29 27 29 29 30 32 33 35 35 36 36
3 1 3 3 5 5 5 7 7 10 12 16 22 26 27 30 34 36 10 16 23 20 19 20 20 20 22 20 15 13 7 4 6 7 9 12 14 18 23 23 25 28 29 32 33 35 34 34 35
3 2 2 1 2 4 5 7 3 15 15 16 17 21 24 27 36 38 23 22 26 29 27 23 23 21 20 16 14 13 4 1 3 4 8 12 14 16 20 21 23 25 27 27 30 33 32 33 33
2 1 2 2 2 3 5 4 6 10 10 14 15 22 20 20 29 37 29 29 24 28 25 22 21 20 19 15 6 7 4 4 3 7 9 11 13 16 18 19 23 27 25 28 30 31 33 34 34
4 4 4 2 3 3 3 5 6 6 8 14 18 19 22 24 24 29 31 34 31 30 29 24 22 21 18 12 9 7 6 6 8 8 10 13 13 14 18 18 21 22 25 28 31 34 33 35 37
Wind_Direction
258 200 142 60 48 62 274 255 257 277 311 294 308 189 198 178 173 215 186 170 173 175 173 175 175 175 179 183 186 188 186 181 174 166 163 161 159 159 154 152 153 155 158 156 152 156 157 162 156
212 146 106 79 86 53 270 256 228 239 334 322 323 262 210 200 204 158 155 166 174 172 172 174 176 176 178 183 182 185 188 184 179 175 169 165 163 157 152 151 152 154 156 158 161 164 167 163 160
153 131 56 83 106 194 223 250 297 306 329 330 343 318 283 265 197 167 170 173 173 174 172 173 172 173 174 178 179 181 185 184 181 178 174 172 166 159 154 151 147 145 153 163 169 169 174 171 164
143 114 63 88 239 252 218 302 317 329 349 1 350 330 297 241 243 176 175 178 170 170 172 172 168 170 171 173 178 180 182 182 182 179 177 177 168 163 157 154 149 149 160 168 169 169 169 170 169
150 110 71 338 257 259 250 283 309 317 303 335 352 321 289 247 189 185 180 178 174 172 173 172 170 170 173 171 177 177 178 179 179 180 180 179 173 167 162 154 151 154 160 166 175 177 176 177 175
116 96 84 230 251 265 253 284 269 328 322 340 3 340 312 313 202 196 185 183 180 176 173 173 171 173 173 173 176 174 176 178 180 183 183 183 176 173 169 164 157 158 161 174 195 190 185 185 181
130 98 203 211 258 292 201 308 95 324 328 345 352 338 333 347 255 215 192 186 182 183 178 177 174 174 173 175 176 175 177 181 185 188 187 185 179 178 176 171 165 166 167 181 197 196 192 190 187
163 108 174 229 207 273 217 356 313 352 305 318 335 333 319 336 308 240 195 187 187 187 186 183 179 176 175 178 179 178 181 185 188 194 193 191 185 185 183 179 175 176 184 193 202 196 194 191 194
161 80 218 239 167 252 294 355 300 293 287 302 298 316 322 332 323 238 200 191 193 191 192 190 186 182 180 182 181 182 185 189 192 196 197 196 194 192 192 193 191 190 194 204 209 195 191 190 193
156 152 217 211 207 252 294 293 297 291 290 296 301 310 318 322 322 215 202 204 199 197 197 196 193 188 187 190 190 188 190 192 196 199 200 201 201 201 200 201 202 202 199 206 201 186 190 196 197
186 208 218 245 251 275 276 296 293 265 260 280 299 306 313 309 306 236 209 211 210 207 205 202 199 197 197 198 197 197 196 198 199 203 205 206 206 206 206 205 205 208 205 203 193 187 195 199 205
255 244 250 277 295 291 248 283 285 262 271 292 293 298 300 297 279 275 232 225 222 217 213 213 209 207 207 209 209 209 205 205 207 207 210 212 210 210 210 211 211 213 212 205 198 193 199 205 215
199 254 299 298 299 285 286 253 256 283 289 296 293 289 296 298 276 258 267 245 239 232 225 223 219 217 218 219 220 220 219 218 216 214 214 217 216 217 215 216 216 216 217 211 206 204 207 210 220
291 288 290 295 284 273 262 262 251 264 283 287 287 284 280 281 282 267 249 239 234 248 252 244 232 227 224 226 227 227 226 224 224 223 222 222 223 223 221 220 221 220 220 218 216 215 214 220 223
282 302 306 251 279 266 272 297 225 270 283 291 300 302 297 285 277 275 267 250 250 250 249 249 252 241 232 230 232 232 232 229 228 228 228 226 226 228 226 224 224 225 224 222 222 221 220 223 225
347 32 338 306 323 290 211 258 272 306 332 314 308 307 304 295 288 279 269 259 250 249 248 253 253 248 243 239 236 237 238 235 232 232 231 231 230 233 233 231 228 227 227 227 228 225 223 226 227
7 292 314 315 319 281 339 309 286 319 315 308 307 306 304 296 292 274 267 269 267 264 264 264 265 249 244 241 238 237 237 236 235 235 234 235 233 234 235 236 234 229 230 231 232 231 226 226 224
297 301 265 268 289 309 302 289 271 300 295 297 301 302 302 298 300 297 286 282 284 284 279 276 283 258 249 237 237 235 235 235 235 235 236 236 236 238 238 239 238 234 231 234 233 233 231 229 224
265 251 261 257 268 295 276 287 302 300 294 283 297 303 307 307 309 300 297 285 292 296 284 283 280 265 244 234 231 233 233 233 231 228 224 228 233 234 240 240 238 235 233 235 236 236 233 228 220
273 275 289 296 332 299 301 291 301 270 250 278 297 301 301 303 307 304 305 296 295 293 284 282 274 258 234 241 234 234 235 234 234 231 229 235 228 233 234 234 236 238 237 234 234 235 232 226 224
333 7 311 275 302 282 293 288 296 55 239 289 302 303 309 311 319 313 310 308 306 297 281 276 270 249 231 232 226 227 231 236 236 238 234 238 225 233 231 230 230 234 237 238 238 238 235 227 231
305 342 319 310 358 316 72 295 297 319 8 3 360 344 342 333 318 310 307 302 297 292 282 268 259 239 225 224 222 223 219 222 229 240 245 251 243 240 237 238 238 240 240 244 247 250 241 233 229
282 334 301 284 282 305 194 210 276 1 18 348 333 334 337 330 318 307 304 302 310 268 259 241 232 218 217 217 213 222 235 252 229 224 231 237 244 245 243 243 244 245 245 246 247 250 243 237 229
317 333 296 242 147 260 78 62 290 355 313 317 323 339 339 336 323 312 305 295 300 218 190 169 175 160 163 178 183 207 208 215 217 220 231 235 236 239 239 246 249 246 246 246 247 248 245 243 230
5 11 336 336 45 236 4 345 266 294 324 321 316 335 344 344 336 323 304 289 253 193 179 169 165 154 163 160 181 193 203 221 229 226 235 239 238 240 242 246 249 247 245 247 248 245 243 244 235
299 92 152 276 303 304 297 253 281 340 318 339 337 332 339 352 346 344 313 267 205 185 169 170 161 146 142 144 159 152 194 223 238 240 244 243 243 239 240 240 241 245 246 249 247 244 244 245 243
315 195 159 251 261 276 257 268 313 341 334 346 341 333 338 346 340 350 359 163 151 139 121 119 123 119 122 126 134 157 187 188 258 260 266 257 250 248 248 244 235 235 239 246 247 241 242 244 240
140 257 19 22 328 280 283 286 305 326 326 334 331 328 329 341 352 1 36 104 123 121 117 112 109 111 105 97 102 125 139 136 344 304 275 266 258 252 252 249 243 241 239 239 242 245 246 244 243
358 23 59 229 188 277 300 281 201 299 337 323 314 342 343 17 29 24 38 28 58 104 102 89 84 92 105 105 102 95 59 31 316 295 289 281 271 261 257 255 249 243 244 242 241 241 247 247 246
153 180 145 124 306 244 250 281 28 350 333 326 332 5 28 25 19 22 24 24 10 55 76 64 67 62 75 73 48 41 7 335 319 301 281 277 283 280 268 263 256 248 243 243 243 244 247 243 241